^^
Saratoga-Weather Station Historical Data
Daily Summary for July 7, 2021 Units:  Both    English   Metric
Daily Weekly Monthly Yearly Custom
  High: Low: Average:
Temperature: 41.2 °F /  5.1 °C 39.6 °F /  4.2 °C 40.5 °F /  4.7 °C
Dew Point: 39.4 °F /  4.1 °C 37.9 °F /  3.3 °C 38.7 °F /  3.7 °C
Humidity: 94% 93% 94%
Wind Speed: 13mph /  20.9km/h - 5mph /  8km/h
Wind Gust: 17mph /  27.4km/h - -
Wind- - West
Pressure: 29.8 in /  1008.8 hPa 29.8 in /  1007.5 hPa -
Precipitation: 0.08 in /  2.0 mm    
Historical Graphs
 
 
Tabular Data for July 7, 2021
Time Temperature Dew Point Pressure Wind Wind Speed Wind Gust Humidity Rainfall Rate (Hourly) solar
00:04 39.6 °F /  4.2 °C 37.9 °F /  3.3 °C 29.8in /  1007.8hPa West 4mph /  6.4km/h 6mph /  9.7km/h 94% 0.03in /  0.8mm 0 W/m2
00:09 39.6 °F /  4.2 °C 37.9 °F /  3.3 °C 29.8in /  1007.8hPa WNW 0.9mph /  1.4km/h 10mph /  16.1km/h 94% 0.03in /  0.8mm 0 W/m2
00:14 39.7 °F /  4.3 °C 38.1 °F /  3.4 °C 29.8in /  1007.5hPa WSW 2mph /  3.2km/h 6mph /  9.7km/h 94% 0.04in /  1.0mm 0 W/m2
00:19 39.7 °F /  4.3 °C 38.1 °F /  3.4 °C 29.8in /  1007.8hPa WNW 2.9mph /  4.7km/h 6mph /  9.7km/h 94% 0.04in /  1.0mm 0 W/m2
00:24 39.9 °F /  4.4 °C 38.3 °F /  3.5 °C 29.8in /  1007.8hPa West 2mph /  3.2km/h 13mph /  20.9km/h 94% 0.04in /  1.0mm 0 W/m2
00:29 40.1 °F /  4.5 °C 38.5 °F /  3.6 °C 29.8in /  1007.8hPa NW 2mph /  3.2km/h 10mph /  16.1km/h 94% 0.05in /  1.3mm 0 W/m2
00:34 40.3 °F /  4.6 °C 38.7 °F /  3.7 °C 29.8in /  1008.1hPa WSW 6.9mph /  11.1km/h 13mph /  20.9km/h 94% 0.05in /  1.3mm 0 W/m2
00:39 40.5 °F /  4.7 °C 38.8 °F /  3.8 °C 29.8in /  1007.8hPa WNW 4mph /  6.4km/h 8mph /  12.9km/h 94% 0.05in /  1.3mm 0 W/m2
00:44 40.5 °F /  4.7 °C 38.8 °F /  3.8 °C 29.8in /  1008.1hPa NW 8.9mph /  14.3km/h 10mph /  16.1km/h 94% 0.06in /  1.5mm 0 W/m2
00:49 40.6 °F /  4.8 °C 39 °F /  3.9 °C 29.8in /  1008.5hPa WNW 6mph /  9.7km/h 13mph /  20.9km/h 94% 0.06in /  1.5mm 0 W/m2
00:54 40.6 °F /  4.8 °C 39 °F /  3.9 °C 29.8in /  1008.5hPa WNW 6mph /  9.7km/h 12mph /  19.3km/h 94% 0.07in /  1.8mm 0 W/m2
00:59 40.6 °F /  4.8 °C 39 °F /  3.9 °C 29.8in /  1008.5hPa West 8.9mph /  14.3km/h 13mph /  20.9km/h 94% 0.06in /  1.5mm 0 W/m2
01:04 40.8 °F /  4.9 °C 39.2 °F /  4 °C 29.8in /  1008.5hPa West 13mph /  20.9km/h 16mph /  25.7km/h 94% 0.06in /  1.5mm 0 W/m2
01:09 40.6 °F /  4.8 °C 38.8 °F /  3.8 °C 29.8in /  1008.5hPa WSW 8.1mph /  13km/h 10mph /  16.1km/h 93% 0.07in /  1.8mm 0 W/m2
01:14 40.6 °F /  4.8 °C 38.8 °F /  3.8 °C 29.8in /  1008.5hPa West 2mph /  3.2km/h 15mph /  24.1km/h 93% 0.06in /  1.5mm 0 W/m2
01:19 40.5 °F /  4.7 °C 38.7 °F /  3.7 °C 29.8in /  1008.5hPa Calm   3mph /  4.8km/h 93% 0.06in /  1.5mm 0 W/m2
01:24 40.5 °F /  4.7 °C 38.7 °F /  3.7 °C 29.8in /  1008.5hPa WNW 8.1mph /  13km/h 9mph /  14.5km/h 93% 0.06in /  1.5mm 0 W/m2
01:29 40.6 °F /  4.8 °C 38.8 °F /  3.8 °C 29.8in /  1008.8hPa WSW 0.9mph /  1.4km/h 5mph /  8km/h 93% 0.06in /  1.5mm 0 W/m2
01:34 40.6 °F /  4.8 °C 38.8 °F /  3.8 °C 29.8in /  1008.8hPa West 4mph /  6.4km/h 17mph /  27.4km/h 93% 0.06in /  1.5mm 0 W/m2
01:39 41 °F /  5 °C 39.2 °F /  4 °C 29.8in /  1008.8hPa WNW 10.1mph /  16.3km/h 11mph /  17.7km/h 93% 0.06in /  1.5mm 0 W/m2
01:44 41.2 °F /  5.1 °C 39.4 °F /  4.1 °C 29.8in /  1008.8hPa West 4mph /  6.4km/h 17mph /  27.4km/h 93% 0.04in /  1.0mm 0 W/m2
Juneau County Weather
Compliments of Weather Underground - 2 mb